Lander, WY

12:52 PM MST on January 21, 2017 (GMT -0700)
South Pass

Weather History for KFWZ - April, 2014

Change the Weather History Date:

Tuesday, April 15, 2014

  Actual Average (KLND) Record (KLND)
Temperature  
Mean Temperature 34 °F -  
Max Temperature 44 °F 57 °F 78 °F (1962)
Min Temperature 24 °F 31 °F 1 °F (1945)
Degree Days  
Heating Degree Days 31    
Moisture  
Dew Point 13 °F    
Average Humidity 44    
Maximum Humidity 80    
Minimum Humidity 25    
Precipitation  
Precipitation 0.00 in - - ()
Sea Level Pressure  
Sea Level Pressure 29.81 in    
Wind  
Wind Speed 12 mph (WSW)    
Max Wind Speed 30 mph    
Max Gust Speed 38 mph    
Visibility 10 miles    
Events Snow    
Averages and records for this station are not official NWS values.
T = Trace of Precipitation, MM = Missing Value Source: NWS Daily Summary

Daily Weather History Graph

Daily Weather History Graph

Search for Another Location

Airport or City:

Trip Planner

Search our weather history database for the weather conditions in past years. The results will help you decide how hot, cold, wet, or windy it might be!

Date:

Astronomy

Apr. 15, 2014 Rise Set
Actual Time 6:33 AM MDT 7:57 PM MDT
Civil Twilight 6:04 AM MDT 8:26 PM MDT
Nautical Twilight 5:29 AM MDT 9:01 PM MDT
Astronomical Twilight 4:52 AM MDT 9:39 PM MDT
Moon 8:42 PM MDT (4/15) 6:43 AM MDT (4/15)
Length of Visible Light 14h 21m
Length of Day
13h 23m
Full, 100% of the Moon is Illuminated
Apr 15
Full
Apr 22
Last Quarter
Apr 29
New
May 6
First Quarter
May 14
Full

Hourly Weather History & Observations

Time (MDT) Temp. Windchill Dew Point Humidity Pressure Visibility Wind Dir Wind Speed Gust Speed Precip Events Conditions
12:15 AM 32.0 °F 23.6 °F 3.2 °F 30% - 10.0 mi West 10.4 mph - N/A   Scattered Clouds
12:35 AM 32.0 °F 23.0 °F 1.4 °F 27% - 10.0 mi West 11.5 mph - N/A   Scattered Clouds
12:55 AM 32.0 °F 24.2 °F -0.4 °F 25% - 10.0 mi West 9.2 mph 19.6 mph N/A   Scattered Clouds
1:15 AM 32.0 °F 23.6 °F 1.4 °F 27% 30.01 in 10.0 mi West 10.4 mph - N/A   Mostly Cloudy
1:35 AM 32.0 °F 22.5 °F 1.4 °F 27% 30.01 in 10.0 mi WSW 12.7 mph - N/A   Scattered Clouds
1:55 AM 32.0 °F 22.5 °F 3.2 °F 30% 30.00 in 10.0 mi West 12.7 mph - N/A   Clear
2:15 AM 32.0 °F 23.0 °F 3.2 °F 30% 29.99 in 10.0 mi West 11.5 mph 17.3 mph N/A   Clear
2:35 AM 33.8 °F 24.3 °F 1.4 °F 25% 29.98 in 10.0 mi West 13.8 mph 20.7 mph N/A   Clear
2:55 AM 33.8 °F 26.4 °F 3.2 °F 28% 29.98 in 10.0 mi NW 9.2 mph - N/A   Clear
3:15 AM 33.8 °F - 1.4 °F 25% 29.98 in 10.0 mi Calm Calm - N/A   Clear
3:35 AM 32.0 °F 24.8 °F 3.2 °F 30% 29.96 in 10.0 mi South 8.1 mph - N/A   Clear
3:55 AM 32.0 °F 27.5 °F 5.0 °F 32% 29.96 in 10.0 mi SSW 4.6 mph - N/A   Clear
4:15 AM 32.0 °F 27.5 °F 5.0 °F 32% 29.95 in 10.0 mi SSW 4.6 mph - N/A   Clear
4:35 AM 32.0 °F 28.7 °F 3.2 °F 30% 29.94 in 10.0 mi South 3.5 mph - N/A   Clear
4:55 AM 32.0 °F - 5.0 °F 32% 29.93 in 10.0 mi Calm Calm - N/A   Clear
5:15 AM 28.4 °F 24.6 °F 8.6 °F 43% 29.92 in 10.0 mi SSW 3.5 mph - N/A   Scattered Clouds
5:35 AM 30.2 °F 22.6 °F 5.0 °F 34% 29.91 in 10.0 mi West 8.1 mph - N/A   Scattered Clouds
5:55 AM 32.0 °F 19.8 °F 3.2 °F 30% 29.90 in 10.0 mi WSW 20.7 mph 26.5 mph N/A   Clear
6:35 AM 30.2 °F 17.8 °F 5.0 °F 34% 29.91 in 10.0 mi WSW 19.6 mph 25.3 mph N/A   Clear
6:55 AM 30.2 °F 18.9 °F 5.0 °F 34% 29.92 in 10.0 mi WSW 16.1 mph 24.2 mph N/A   Clear
7:15 AM 30.2 °F 21.3 °F 3.2 °F 32% 29.93 in 10.0 mi WSW 10.4 mph - N/A   Clear
7:35 AM 30.2 °F 23.4 °F 3.2 °F 32% 29.93 in 10.0 mi WSW 6.9 mph - N/A   Clear
7:55 AM 30.2 °F 22.6 °F 3.2 °F 32% 29.92 in 10.0 mi WSW 8.1 mph - N/A   Clear
8:15 AM 28.4 °F 20.4 °F 5.0 °F 37% 29.91 in 10.0 mi SW 8.1 mph - N/A   Clear
8:35 AM 26.6 °F 18.2 °F 6.8 °F 43% 29.90 in 10.0 mi SW 8.1 mph - N/A   Clear
8:55 AM 24.8 °F 20.5 °F 10.4 °F 54% - 10.0 mi SW 3.5 mph - N/A   Clear
9:15 AM 24.8 °F 19.1 °F 12.2 °F 59% - 10.0 mi South 4.6 mph - N/A   Clear
9:35 AM 26.6 °F 18.2 °F 12.2 °F 55% 29.89 in 10.0 mi SW 8.1 mph - N/A   Clear
9:55 AM 26.6 °F 16.2 °F 15.8 °F 64% - 10.0 mi SW 11.5 mph - N/A   Clear
10:15 AM 28.4 °F 17.0 °F 17.6 °F 64% 29.87 in 10.0 mi SW 15.0 mph 19.6 mph N/A   Clear
10:35 AM 30.2 °F 21.9 °F 17.6 °F 60% 29.87 in 10.0 mi SSW 9.2 mph 18.4 mph N/A   Scattered Clouds
11:15 AM 33.8 °F 24.8 °F 15.8 °F 48% 29.87 in 10.0 mi SW 12.7 mph - N/A   Clear
11:55 AM 35.6 °F 29.9 °F 14.0 °F 41% 29.86 in 10.0 mi SSW 6.9 mph - N/A   Clear
12:15 PM 37.4 °F 32.1 °F 14.0 °F 38% 29.85 in 10.0 mi SSW 6.9 mph - N/A   Clear
12:35 PM 37.4 °F 31.4 °F 17.6 °F 45% 29.85 in 10.0 mi SW 8.1 mph - N/A   Clear
12:55 PM 39.2 °F 32.5 °F 15.8 °F 39% 29.83 in 10.0 mi WSW 10.4 mph 20.7 mph N/A   Clear
1:15 PM 41.0 °F 33.9 °F 15.8 °F 36% 29.81 in 10.0 mi WSW 12.7 mph 20.7 mph N/A   Clear
1:35 PM 42.8 °F 37.0 °F 14.0 °F 31% 29.78 in 10.0 mi WSW 10.4 mph 17.3 mph N/A   Clear
1:55 PM 42.8 °F 35.8 °F 14.0 °F 31% 29.77 in 10.0 mi WSW 13.8 mph 24.2 mph N/A   Clear
2:15 PM 44.6 °F 36.1 °F 14.0 °F 29% 29.74 in 10.0 mi WSW 21.9 mph 29.9 mph N/A   Clear
2:35 PM 44.6 °F 34.7 °F 14.0 °F 29% 29.73 in 10.0 mi WSW 29.9 mph 36.8 mph N/A   Clear
2:55 PM 44.6 °F 35.7 °F 14.0 °F 29% 29.72 in 10.0 mi WSW 24.2 mph 33.4 mph N/A   Mostly Cloudy
3:15 PM 44.6 °F 35.9 °F 14.0 °F 29% 29.72 in 10.0 mi WSW 23.0 mph 29.9 mph N/A   Overcast
3:35 PM 44.6 °F 36.1 °F 14.0 °F 29% 29.69 in 10.0 mi WSW 21.9 mph 38.0 mph N/A   Mostly Cloudy
3:55 PM 42.8 °F 33.1 °F 14.0 °F 31% 29.68 in 10.0 mi WSW 25.3 mph 34.5 mph N/A   Mostly Cloudy
4:15 PM 42.8 °F 32.7 °F 15.8 °F 34% 29.68 in 10.0 mi West 27.6 mph 36.8 mph N/A   Overcast
4:35 PM 41.0 °F 31.4 °F 17.6 °F 39% 29.68 in 10.0 mi WSW 21.9 mph 31.1 mph N/A   Overcast
4:55 PM 41.0 °F 31.9 °F 19.4 °F 42% 29.70 in 10.0 mi West 19.6 mph 27.6 mph N/A   Overcast
5:15 PM 41.0 °F 32.2 °F 19.4 °F 42% 29.70 in 10.0 mi West 18.4 mph 27.6 mph N/A   Overcast
5:35 PM 39.2 °F 30.2 °F 19.4 °F 45% 29.71 in 10.0 mi West 17.3 mph 24.2 mph N/A   Overcast
5:55 PM 37.4 °F 27.8 °F 21.2 °F 52% 29.71 in 10.0 mi West 17.3 mph 29.9 mph N/A   Overcast
6:15 PM 37.4 °F 26.9 °F 21.2 °F 52% 29.70 in 10.0 mi West 20.7 mph 28.8 mph N/A   Overcast
6:35 PM 35.6 °F 24.5 °F 23.0 °F 60% 29.71 in 10.0 mi West 20.7 mph 29.9 mph N/A   Overcast
6:55 PM 35.6 °F 24.8 °F 23.0 °F 60% 29.70 in 10.0 mi West 19.6 mph 29.9 mph N/A   Overcast
7:15 PM 33.8 °F 23.5 °F 23.0 °F 65% 29.69 in 10.0 mi WSW 16.1 mph 33.4 mph N/A   Overcast
7:35 PM 35.6 °F 24.2 °F 23.0 °F 60% 29.68 in 10.0 mi West 21.9 mph 32.2 mph N/A   Mostly Cloudy
7:55 PM 35.6 °F 24.0 °F 23.0 °F 60% 29.67 in 10.0 mi WSW 23.0 mph 36.8 mph N/A   Overcast
8:15 PM 33.8 °F 21.0 °F 24.8 °F 70% 29.67 in 10.0 mi WSW 25.3 mph 33.4 mph N/A   Overcast
8:35 PM 32.0 °F 19.8 °F 26.6 °F 80% 29.68 in 5.0 mi West 20.7 mph 26.5 mph N/A Snow Light Snow
9:15 PM 32.0 °F 19.2 °F 26.6 °F 80% 29.66 in 10.0 mi WSW 23.0 mph 31.1 mph N/A   Scattered Clouds
9:35 PM 32.0 °F 18.9 °F 23.0 °F 69% 29.65 in 10.0 mi West 24.2 mph 34.5 mph N/A   Scattered Clouds
9:55 PM 32.0 °F 20.1 °F 17.6 °F 55% 29.67 in 10.0 mi West 19.6 mph 34.5 mph N/A   Clear
10:15 PM 32.0 °F 19.8 °F 17.6 °F 55% 29.68 in 10.0 mi West 20.7 mph 36.8 mph N/A   Clear
10:35 PM 32.0 °F 20.5 °F 21.2 °F 64% 29.70 in 10.0 mi West 18.4 mph 31.1 mph N/A   Scattered Clouds
10:55 PM 30.2 °F 19.8 °F 23.0 °F 75% 29.72 in 10.0 mi WNW 13.8 mph 28.8 mph N/A   Scattered Clouds
11:15 PM 32.0 °F 22.1 °F 21.2 °F 64% 29.73 in 10.0 mi NW 13.8 mph 21.9 mph N/A   Clear
11:35 PM 30.2 °F 24.3 °F 21.2 °F 69% 29.73 in 10.0 mi NW 5.8 mph - N/A   Mostly Cloudy
11:55 PM 30.2 °F 20.2 °F 23.0 °F 75% 29.74 in 10.0 mi North 12.7 mph 19.6 mph N/A   Overcast